POSAT 1

导读

POSAT 1(葡萄牙卫星1号)是葡萄牙首颗实验性微型卫星,由葡萄牙学术界、工业界与英国萨里卫星技术有限公司合作研制,于1993年9月26日在圭亚那航天中心随阿丽亚娜4运载火箭发射升空。卫星运行于近地轨道,搭载地球成像、GPS导航试验、空间辐射监测、数字信号处理等载荷,开展遥感测绘、新技术验证,是葡萄牙航天发展的开端。

Basic Information
目录编号:
22829
目录名称:
POSAT 1
国际标识:
1993-061G
轨道中心:
EARTH
卫星名称:
POSAT 1
卫星全名:
--
卫星状态:
在轨 (已飞行12038 天)
发射日期:
1993-09-26 UTC
国别 :
(PT)
星等 :
--
Orbit Information
数据来源 国际轨道数据 AOE轨道数据
星历时间 2026-09-11T01:56:05+0800
11小时前
查看轨道信息
2026-09-06T00:00:00+0800
5天前
查看轨道信息
半长轴 7163.402km 7163.404km
偏心率 0.0010541 0.0009823
轨道倾角 98.658° 98.660°
近地点辐角 133.818° 146.867°
升交点赤经 320.681° 315.612°
平近点角 226.388° 317.871°
近地点 777.714km 778.23km
远地点 792.816km 792.304km
周期 100.563分钟 100.563分钟
每日圈数 14.319366 14.31936
Detailed Information
使用方式:
暂无
2D Orbit Map
3D Orbit Map
Orbit Altitude Analysis Chart
Orbit Inclination Analysis Chart
Orbit Comprehensive Analysis Chart
View Comprehensive Chart
Conjunction Data List
Event ID Objects TCA Miss Dist (km) Collision Risk Probability Collision Risk Index (CRI) Action
CDM_260906-075701-577302-282926
POSAT 1 (22829)
2026-09-06T
07:57:57+0000
1.898 km
极远距离
3.008223E-6 低风险 0.45
CDM_260912-211402-282902-996623
POSAT 1 (22829)
2026-09-12T
21:14:44+0000
2.556 km
极远距离
1.678673E-6 低风险 0.39
Miss Distance Evolution Trend with All Objects
Collision Probability Evolution Trend with All Objects